Miscellaneous Local Product
Issued by NWS North Platte, NE

Home | Current Version | Previous Version | Text Only | Print | Product List | Glossary On
Versions: 1 2 3 4 5 6 7 8 9 10 11 12 13 14 15 16 17 18 19 20 21 22 23 24 25 26 27 28 29 30 31 32 33 34 35 36 37 38 39 40 41 42 43 44 45 46 47 48 49 50
000
AXUS43 KLBF 150310
MISLBF


WESTERN AND NORTH CENTRAL NEBRASKA HOURLY WEATHER ROUNDUP
NATIONAL WEATHER SERVICE NORTH PLATTE NE
1000 PM CDT SUN SEP 14 2014

***STATIONS NOT REPORTING VARIABLES SUCH AS SKY/WEATHER OR
PRESSURE ARE PROVIDED BY THE NEBRASKA DEPARTMENT OF
ROADS...RAWS...AND APRS NETWORKS...AND ARE NOT UNDER
NATIONAL WEATHER SERVICE QUALITY CONTROL***

...OBSERVATIONS IN AND NEAR THE EASTERN PANHANDLE OF NEBRASKA...

CITY           SKY/WX    TMP DP  RH WIND       PRES   REMARKS
PINE RIDGE     PTCLDY    46  41  82 NE7       30.15R
ALLIANCE       MOCLDY    55  46  71 NE15      30.10R
SIDNEY         MOCLDY    61  52  72 NE14      30.06R
WHITECLAY        N/A     46  37  71 CALM        N/A
RUSHVILLE        N/A     45  39  81 NE10        N/A
CRESCENT LAKE    N/A     58  51  79 NE10        N/A
LISCO            N/A     65  51  60 N17         N/A
BIG SPRINGS      N/A     63  58  84 NE3         N/A
$$

...OBSERVATIONS IN NORTH CENTRAL NEBRASKA...

CITY           SKY/WX    TMP DP  RH WIND       PRES   REMARKS
VALENTINE      CLOUDY    52  42  69 NE12      30.12R
THEDFORD       MOCLDY    59  53  80 NE7       30.07S
AINSWORTH      MOCLDY    53  47  81 NE6       30.09F
O`NEILL        CLOUDY    59  54  82 NE7       30.10S
ORD            CLOUDY    60  54  80 SE5       30.06S
BROKEN BOW     CLOUDY    63  55  75 SE9       30.06R
SPRINGVIEW       N/A     53  45  75 E7          N/A
ROSE             N/A     60  56  85 NE7         N/A
NEWPORT          N/A     57  51  79 NE8         N/A
COMSTOCK         N/A     65  59  81 SE3         N/A
CHAMBERS         N/A     61  53  75 E3          N/A
$$

...OBSERVATIONS IN SOUTHWEST NEBRASKA AND FAR NORTHEAST COLORADO...

CITY           SKY/WX    TMP DP  RH WIND       PRES   REMARKS
WRAY           FAIR      67  57  71 SE9       30.01S
HOLYOKE        FAIR      66  57  72 CALM      30.01R
IMPERIAL       MOCLDY    64  57  78 NE10      29.99R
OGALLALA       PTCLDY    64  58  82 E9        30.02R
NORTH PLATTE   PTCLDY    59  55  87 E12       30.02F
MCCOOK         MOCLDY    63  58  83 E10       29.98F
LEXINGTON      CLOUDY    58  55  87 E9        30.04F
PAXTON           N/A     63  58  83 E6          N/A
SUTHERLAND       N/A     57  53  88 E8          N/A
BRADY            N/A     58  53  84 N3          N/A
GOTHENBURG       N/A     61  53  73 E6          N/A
CALLAWAY         N/A     61  56  84 E8          N/A
$$

...SOME WEATHER OBSERVATIONS FROM AROUND THE REGION...

CITY           SKY/WX    TMP DP  RH WIND       PRES   REMARKS
DENVER         CLOUDY    66  43  43 SE5       30.10R
LARAMIE        PTCLDY    55  34  45 SW10      30.19R
CHEYENNE       PTCLDY    53  46  77 N9        30.17R
SCOTTSBLUFF    PTCLDY    55  46  71 NE21      30.09R
RAPID CITY     CLEAR     42  36  79 E6        30.19R
PIERRE         CLOUDY    51  43  74 N3        30.14S
WINNER         CLOUDY    52  42  69 NE8       30.14R
SIOUX FALLS    CLOUDY    53  46  77 NE9       30.14R
OMAHA          CLOUDY    66  51  58 E9        30.09S
GRAND ISLAND   CLOUDY    63  53  70 E6        30.07R
KANSAS CITY    MOCLDY    64  57  78 SE7       30.11S
WICHITA        PTCLDY    72  60  66 S17       30.04S
HAYS           CLEAR     72  61  68 S17       29.94F
LIBERAL        CLEAR     70  57  64 S9        30.07R
GOODLAND       MOCLDY    65  55  70 NE9       30.02R
$$



USA.gov is the U.S. government's official web portal to all federal, state and local government web resources and services.